Theta_e
336 335 333 332 327 321 315 312 312 310 314 315 312 314 313 312 310 309 307 302 299 298 298 299 298 298 298 297 298 298 298 298 299 299 299 299 299 299
335 335 333 331 327 318 314 314 312 312 310 318 313 314 313 310 309 310 308 304 299 297 297 297 298 298 298 298 298 297 297 297 297 297 297 297 298 298
334 333 331 330 326 317 313 311 310 310 308 317 316 314 313 311 309 309 309 308 306 299 297 297 297 297 297 298 298 298 296 295 296 296 296 296 296 296
333 330 329 328 325 320 313 311 311 311 312 309 311 312 311 312 311 309 307 306 307 300 298 297 297 296 296 296 296 296 296 295 294 294 294 294 294 294
333 331 328 327 323 320 313 311 310 313 315 310 311 313 311 310 309 309 308 308 305 302 298 297 297 297 297 296 295 296 295 295 294 294 294 293 293 293
332 330 328 326 322 318 313 311 315 315 311 308 310 310 309 308 308 306 305 306 305 303 300 297 297 297 297 297 296 295 295 295 294 294 293 292 292 292
328 326 326 319 309 312 314 313 315 311 307 310 309 309 308 305 304 307 305 306 305 305 305 304 302 302 301 296 297 296 295 295 294 293 294 293 292 292
322 323 319 307 304 299 299 300 306 308 307 310 310 308 309 306 307 306 304 302 302 307 303 302 303 301 301 302 298 296 294 294 293 293 293 293 292 291
320 315 308 307 301 303 294 294 295 293 298 311 310 310 309 308 307 305 304 304 303 302 300 299 302 300 301 299 294 293 292 292 292 292 292 292 291 290
319 315 311 303 303 302 298 299 300 303 302 304 309 309 309 309 308 307 306 305 304 302 300 296 302 300 301 301 294 293 292 291 291 291 292 291 290 290
310 310 309 303 295 296 299 298 301 300 291 290 292 291 292 294 300 303 301 300 299 300 300 298 302 299 299 299 299 291 290 290 291 291 291 290 290 289
299 298 294 300 292 292 300 300 299 299 297 295 296 293 294 294 291 303 302 299 299 298 301 297 299 296 294 300 298 299 298 290 290 291 291 291 290 292
298 296 295 290 291 292 295 300 300 298 294 301 301 301 301 300 298 299 302 301 300 299 299 297 297 295 293 293 296 298 298 298 299 298 293 292 291 289
296 296 292 290 290 290 292 290 289 292 300 300 300 300 299 300 301 301 300 300 300 299 299 296 294 294 294 293 292 297 298 298 298 297 298 295 291 290
297 293 289 289 289 288 288 287 287 295 297 298 299 299 300 301 300 299 298 297 297 296 294 295 295 294 293 292 292 294 293 296 298 297 297 296 296 295
289 290 289 288 288 289 288 287 293 296 295 297 299 299 299 297 296 297 295 295 294 294 295 294 294 294 293 294 294 294 295 294 297 297 297 296 295 295
290 291 290 290 289 290 292 292 294 293 293 295 296 296 294 294 294 295 293 293 292 293 295 297 297 296 296 294 293 294 295 296 297 296 295 293 293 294
291 290 288 289 289 289 289 291 291 289 295 296 296 295 294 294 293 293 294 294 293 295 294 295 295 294 293 293 292 294 295 296 297 296 295 292 291 293
290 289 289 289 289 290 290 289 288 290 291 291 291 290 290 292 290 292 292 292 292 290 289 289 290 289 286 285 292 289 295 296 295 294 293 292 291 292
290 289 289 289 289 289 290 289 289 289 289 290 289 291 291 291 290 290 290 289 287 287 286 289 288 287 286 286 286 290 288 292 293 292 292 293 292 286
293 293 291 290 290 290 289 289 289 289 288 288 288 289 290 289 288 288 288 286 286 288 287 288 291 287 291 289 285 288 293 288 290 291 290 289 288 288
296 295 296 296 296 296 295 293 293 294 296 296 297 296 294 294 292 291 291 291 291 291 290 293 294 292 288 285 285 287 290 293 289 285 284 284 286 284
296 296 297 297 298 298 298 298 296 297 296 296 296 296 289 293 295 294 293 291 290 290 291 290 290 289 287 288 286 287 289 290 291 291 291 284 283 283
Wind_Speed
15 14 11 9 8 7 6 4 3 3 6 9 6 10 9 9 10 11 12 18 15 14 12 11 11 10 9 8 9 10 10 11 11 11 13 14 15 16
12 14 13 9 9 7 7 5 3 3 3 2 6 7 10 9 9 12 12 14 16 14 12 12 12 11 11 8 10 10 10 11 11 12 12 13 15 16
14 14 15 13 9 8 6 6 4 3 3 1 2 6 8 10 9 10 10 10 9 16 14 15 13 12 12 10 11 10 10 11 11 12 13 13 15 16
17 15 16 11 13 11 7 9 7 6 5 6 5 7 8 10 9 10 10 9 9 16 17 15 14 12 11 13 13 11 11 11 10 12 13 12 15 16
16 16 15 15 14 11 9 8 6 6 8 5 3 5 6 6 9 10 11 10 8 9 10 12 13 14 14 15 14 14 13 13 10 11 11 12 14 15
13 14 15 17 16 15 12 11 9 9 8 7 7 7 7 8 8 8 9 8 8 8 9 7 5 13 15 15 15 16 14 13 11 11 12 12 13 14
14 14 13 15 16 15 10 11 13 10 8 9 8 7 8 7 9 8 8 6 8 7 7 6 7 9 10 14 14 16 15 14 12 12 12 11 13 14
14 14 11 12 12 14 8 11 13 12 11 10 9 10 10 8 8 7 6 6 6 7 7 8 7 7 8 7 5 6 10 11 11 12 13 11 13 14
14 11 8 7 7 8 6 6 6 2 2 9 9 10 9 9 7 8 9 8 7 5 5 6 5 7 6 5 6 6 7 9 12 13 12 11 12 15
13 16 13 11 11 9 10 6 6 9 6 5 7 7 8 7 8 8 7 7 2 3 5 5 4 6 6 6 10 8 7 11 12 13 12 10 11 15
7 11 13 13 13 16 10 9 11 7 4 6 8 7 7 4 6 6 6 6 5 4 5 4 3 4 6 6 3 6 6 10 11 12 13 13 13 14
3 4 7 9 17 15 8 8 10 9 8 8 6 6 6 5 5 7 6 6 5 3 5 4 2 3 4 3 3 3 5 13 13 15 17 16 13 9
6 5 3 12 12 11 6 7 7 10 5 8 7 6 7 6 6 6 6 6 5 5 7 5 3 3 3 5 6 6 6 7 8 9 13 15 13 13
6 5 6 12 10 8 4 8 10 7 5 6 6 6 6 6 6 6 5 4 3 4 6 6 4 5 5 7 6 5 7 8 9 9 9 9 12 15
6 10 12 11 12 8 7 10 7 4 4 6 6 6 5 5 6 4 4 5 4 4 5 8 6 7 6 8 9 10 10 8 10 9 8 10 10 10
9 9 6 8 6 7 6 5 2 3 3 5 5 5 5 5 5 4 4 3 3 5 8 9 10 9 8 9 9 11 11 9 8 10 10 9 10 10
8 6 6 4 5 4 5 5 4 4 4 5 5 5 4 4 4 4 4 4 5 4 4 5 8 9 9 10 10 12 11 11 10 11 11 9 10 10
3 5 5 5 5 4 4 5 3 1 4 4 4 4 5 4 4 4 5 5 6 5 4 3 4 4 6 8 13 12 11 11 10 11 10 9 10 10
3 3 3 4 3 4 3 3 3 2 3 3 4 3 3 2 2 3 5 5 6 4 3 3 4 5 7 9 5 16 11 11 9 9 9 9 10 10
3 3 4 3 3 3 4 3 3 4 3 3 3 4 4 4 4 5 5 5 5 4 4 5 5 6 6 6 3 7 11 11 10 11 10 9 9 13
4 5 4 4 3 3 3 3 3 3 3 3 3 4 4 4 5 5 5 6 5 6 7 7 7 6 6 3 5 8 9 13 14 11 10 9 10 10
5 6 6 6 6 6 5 4 4 5 6 6 6 5 5 5 5 6 6 6 6 7 7 6 5 4 4 7 10 11 10 9 7 15 15 14 8 6
4 4 4 4 4 4 4 5 5 5 5 4 4 4 5 6 6 6 6 7 7 7 7 6 5 3 7 9 9 10 15 11 9 9 8 18 21 23
Wind_Direction
216 215 223 214 201 198 174 162 173 206 216 175 198 202 210 205 192 195 215 177 192 205 213 218 222 231 243 254 273 287 290 299 301 301 304 309 317 319
214 214 217 221 204 198 181 179 163 180 267 115 201 161 201 210 176 205 210 155 188 204 211 224 225 229 242 251 268 277 282 296 292 292 294 301 312 320
213 214 214 213 209 198 177 184 180 164 199 297 98 154 194 208 182 212 211 211 199 199 210 223 226 227 238 244 254 259 269 275 282 289 287 295 303 311
212 210 213 206 206 196 177 187 194 172 203 228 178 164 215 202 207 199 214 216 226 185 200 217 226 229 235 239 246 250 250 260 269 280 277 286 297 309
216 211 212 202 203 197 180 172 181 195 199 219 221 187 197 192 205 210 214 223 228 145 186 212 226 231 234 236 239 245 242 247 255 264 266 277 285 301
214 214 213 205 201 193 182 183 185 187 195 211 228 173 206 191 217 209 211 220 230 224 216 249 212 224 229 236 238 241 239 240 241 251 253 270 281 291
213 207 203 204 190 179 172 175 180 181 183 205 212 194 201 189 211 208 223 208 213 241 240 241 234 234 226 223 249 233 237 234 234 244 248 265 279 287
202 207 199 180 178 168 161 167 168 180 189 191 204 209 215 209 211 214 202 205 227 192 230 252 244 253 258 256 243 221 207 228 234 247 249 264 278 286
198 183 164 160 157 163 141 142 186 149 174 203 209 211 217 205 200 200 204 211 224 140 212 254 227 250 261 252 192 230 242 231 241 252 247 265 276 286
203 191 176 157 155 163 145 158 205 207 174 198 216 212 210 193 204 209 203 208 167 175 225 260 248 265 286 275 170 206 225 238 247 252 260 274 278 286
190 187 167 158 156 140 145 163 185 168 87 67 65 64 74 55 159 162 175 184 206 222 173 262 282 296 283 284 278 186 232 252 253 257 274 276 269 281
104 99 103 137 143 152 155 172 178 173 162 155 153 129 165 156 182 214 185 203 206 194 186 211 231 252 294 232 254 245 249 218 236 250 257 257 253 274
156 141 111 120 137 156 198 177 189 147 167 173 172 168 174 169 182 207 217 219 205 231 137 203 227 236 244 290 294 285 277 284 278 281 249 234 221 240
136 114 121 119 132 156 194 118 130 130 154 179 179 182 180 184 187 188 189 212 245 271 138 231 234 233 248 277 283 282 280 284 291 287 294 296 224 233
134 122 120 117 138 122 129 130 137 129 158 187 194 187 190 172 164 168 176 209 231 233 239 226 240 251 259 263 276 286 294 280 282 288 288 298 304 309
109 114 117 121 127 125 114 143 150 163 184 206 199 176 166 166 180 171 198 202 233 235 223 233 247 250 256 263 275 279 279 276 277 281 280 277 290 293
111 113 120 131 129 138 138 160 177 162 192 186 183 183 191 183 185 169 194 202 235 255 251 207 224 246 255 263 270 273 280 281 281 285 284 285 283 296
90 129 126 132 142 150 160 165 165 141 210 196 194 211 196 196 194 196 209 224 238 250 270 301 301 257 242 241 243 269 277 284 289 287 286 286 286 292
88 98 114 135 145 147 168 146 148 186 176 187 205 203 200 173 168 222 230 238 250 254 255 262 274 281 276 267 262 231 280 285 289 281 275 273 280 286
108 120 125 138 146 155 160 170 159 161 171 180 200 200 198 202 211 220 219 224 230 232 241 248 243 239 243 266 281 269 268 277 280 280 280 279 282 287
131 134 138 137 131 150 136 160 183 172 178 169 206 197 195 201 219 229 232 222 222 238 244 252 254 230 266 287 258 270 283 243 246 268 281 290 291 290
155 150 157 156 161 170 171 179 187 183 197 214 221 217 215 214 224 233 240 250 248 247 254 275 291 282 256 247 275 288 291 299 217 236 235 239 267 279
172 176 166 164 171 178 185 201 212 214 216 222 235 226 183 239 246 245 245 253 260 262 270 278 278 256 251 269 278 287 290 292 291 283 272 215 233 247